This is the latest recevied weather packets stored in our database for station/object KI4NG. If no packets are shown the sender has not sent any weather packets the latest 10 day(s).
| Time | Temp. | Humidity | Pressure | Rain* | Wind** | Luminosity | Snow |
|---|---|---|---|---|---|---|---|
| 1788205920 | 30.56° C | 64% | 1022.2 hPa | 0 mm | - | 339 W/m² | - |
| 1788205614 | 30° C | 65% | 1022.5 hPa | 0 mm | - | 278 W/m² | - |
| 1788205310 | 30° C | 67% | 1022.3 hPa | 0 mm | - | 172 W/m² | - |
| 1788205004 | 30° C | 66% | 1022.5 hPa | 0 mm | - | 270 W/m² | - |
| 1788204699 | 30° C | 72% | 1022.5 hPa | 0 mm | - | 262 W/m² | - |
| 1788204394 | 30° C | 66% | 1022.8 hPa | 0 mm | - | 227 W/m² | - |
| 1788204090 | 30° C | 68% | 1022.5 hPa | 0 mm | - | 229 W/m² | - |
| 1788203786 | 30° C | 68% | 1022.3 hPa | 0 mm | - | 226 W/m² | - |
| 1788203481 | 30.56° C | 68% | 1022.8 hPa | 0 mm | - | 233 W/m² | - |
| 1788203176 | 30.56° C | 69% | 1022.8 hPa | 0 mm | - | 232 W/m² | - |
| 1788202875 | 30.56° C | 68% | 1022.8 hPa | 0 mm | - | 222 W/m² | - |
| 1788202571 | 30° C | 69% | 1022.8 hPa | 0 mm | - | 216 W/m² | - |
| 1788202267 | 30° C | 70% | 1023 hPa | 0 mm | - | 216 W/m² | - |
| 1788201966 | 30° C | 71% | 1022.9 hPa | 0 mm | - | 212 W/m² | - |
| 1788201662 | 30° C | 69% | 1023.1 hPa | 0 mm | - | 211 W/m² | - |
| 1788201360 | 30° C | 68% | 1023 hPa | 0 mm | - | 198 W/m² | - |
| 1788201054 | 30° C | 67% | 1023 hPa | 0 mm | - | 199 W/m² | - |
| 1788200749 | 30° C | 67% | 1023.2 hPa | 0 mm | - | 184 W/m² | - |
| 1788200445 | 30° C | 68% | 1023.1 hPa | 0 mm | - | 199 W/m² | - |
| 1788200144 | 30° C | 68% | 1023.3 hPa | 0 mm | - | 209 W/m² | - |
| 1788199844 | 30° C | 65% | 1023.2 hPa | 0 mm | - | 208 W/m² | - |
| 1788199539 | 30° C | 66% | 1023.2 hPa | 0 mm | - | 206 W/m² | - |
| 1788199235 | 30.56° C | 63% | 1023.2 hPa | 0 mm | - | 206 W/m² | - |
| 1788198930 | 30° C | 66% | 1023.2 hPa | 0 mm | - | 255 W/m² | - |
| 1788198626 | 30.56° C | 66% | 1023.3 hPa | 0 mm | - | 212 W/m² | - |
* Rain latest hour (hover to see other rain measurements)
** Current wind speed in m/s (hover to see current wind gust speed)